STARLINK-34672, 65894

Orbit data source: Space-Track

STARLINK-34672, 65894 is a payload satellite owned by SpaceX/Seattle (US) in LEO that was launched on Tue, 07 Oct 2025 UTC via an FALCON 9 launch vehicle from the Air Force Eastern Test Range (AFETR). Payload-class satellites include a variety of spacecraft equipped with specific instruments for various scientific and technological missions. These include communications satellites like Starlink; space stations such as the ISS; scientific satellites like the Hubble; Earth observation satellites from companies like Planet Labs, Umbra, and HawkEye 360; GPS; miniature CubeSats for education and research; and military/defense satellites.

Loading next visibility...
Identifier
65894, 2025-224N
Orbit
LEO
Country
Flag of USUS
Related business
Manufacturer
SpaceX/Seattle
Mission
Operational Commercial Communications
Bus & Motor
STARLINK V2MO, Unknown motor
Mass
575 kg wet, ~530 kg dry
Launch date (UTC)
2025-10-07 (8 months ago)
Launch vehicle
FALCON 9
Launch site
Air Force Eastern Test Range (AFETR)
Object type
Payload
Rocket body
Debris
Shape & HBR
Box + 2 Pan, 17.7 m
Radar Cross Section
36.964 m², Large (>1 m²)

Expand to show TLE details & history
Last TLE update: 1 day ago

TLE from 1 day ago
0 STARLINK-34672
1 65894U 25224N   26170.52207787  .00022601  00000-0  77288-3 0  9997
2 65894  53.1590 258.4626 0000368   4.1593 355.9411 15.30199593 40466
Epoch: 2026-06-19T12:31Z
TLE epoch observation values (Epoch: 2026-06-19T12:31:47.527Z)
Latitude
-0.00003°
Longitude
162.7647°
Altitude
475.864 km
Speed
7.629 km/s
True Right ascension
17h 13m 51s
True Declination
0° 00' 00"
Sunlit
Object was in full shadow at epoch
Visualization orbit readout
Latitude
Unknown
Longitude
Unknown
Altitude
Unknown
Speed
Unknown
Apparent Right ascension
Unknown
Apparent Declination
Unknown
Sunlit
N/A
Visualization observer readout
Local Sidereal Time
07:22:04
Azimuth
Unknown
Elevation
Unknown
Doppler factor
Unknown
Orbital elements
Apogee altitude
475.725 km
Perigee altitude
475.221 km
Semi-major axis
6,853.61 km
Eccentricity
0.00004
Inclination
53.159°
RAAN
258.4626°
Arg. of periapsis
4.1593°
True anomaly
355.9408°
Mean anomaly
355.9411°
Eccentric anomaly
355.94095°
Mean motion
3.82529 °/min
Orbital period
94.11 mins
BSTAR
0.00077288
Loading maneuver chart data...
Computing Atmospheric mass density...
Loading historical data...
Loading historical data...
Loading historical data...
Loading historical data...
Loading historical data...
Loading historical data...
Loading historical data...

Documentation

Showing up to 5 results
|